FLOCK 4H 26

导读

FLOCK 4H 26是美国于2025年11月28日发射的小卫星,隶属于FLOCK 4H卫星星座,作为Planet Labs公司Flock系列成像卫星的一员,该卫星部署在近地轨道,主要承担高分辨率地球观测任务,可获取全球地表影像数据,服务于农业监测、城市规划、灾害评估、地理测绘等多个民用与商业领域,延续了Flock星座持续更新对地观测能力的设计目标,为全球用户提供及时的空间遥感信息支持。

基本信息
目录编号:
66729
目录名称:
FLOCK 4H 26
国际标识:
2025-276BR
轨道中心:
EARTH
卫星名称:
FLOCK 4H 26
卫星全名:
FLOCK 4H 26
卫星状态:
在轨 (已飞行281 天)
发射日期:
2025-11-28 UTC
国别 :
美国 (US)
星等 :
--
轨道信息
数据来源 国际轨道数据
星历时间: 2026-09-05T11:51:43+0800
11小时前
查看轨道信息
半长轴: 6882.586km
偏心率: 0.0006511
轨道倾角: 97.413°
近地点辐角 92.628°
升交点赤经 320.241°
平近点角 267.570°
近地点: 499.967km
远地点: 508.931km
周期: 94.708分钟
每日圈数: 15.204611
详细信息
使用方式:
暂无
2D轨道图
3D轨道图
轨道高度分析图
轨道倾角分析图
轨道综合分析图
查看轨道综合分析图